Hourly Data Report for October 11, 2013

All times are specified in Local Standard Time (LST). Add 1 hour to adjust for Daylight Saving Time where and when it is observed.

SAINT JOHN A
NEW BRUNSWICK

45°18'58.000" N
65°53'24.000" W
108.80 m
8104901
71609
YSJ

Download Data

Hourly Data (October 2013)
Hourly Data Report for October 11, 2013
Temp Definition
°C
Dew Point Temp Definition
°C
Rel Hum Definition
%
Wind Dir Definition
10's deg

Wind Spd Definition
km/h
Visibility Definition
km
Stn Press Definition
kPa
Hmdx Definition


Wind Chill Definition


Weather Definition


TIME
00:00 Legend Double Dagger 2.9 2.8 99 6 2 24.1 100.88     LegendNANA
01:00 Legend Double Dagger 2.2 2.1 99 4 4 24.1 100.86     LegendNANA
02:00 Legend Double Dagger 3.3 3.2 99 33 3 24.1 100.84     Fog
03:00 Legend Double Dagger 3.0 3.0 100 1 3 24.1 100.83     Fog
04:00 Legend Double Dagger 2.4 2.4 100 5 2 24.1 100.81     Fog
05:00 Legend Double Dagger 2.4 2.4 100 4 4 6.4 100.82     Fog
06:00 Legend Double Dagger 2.6 2.6 100 5 5 1.6 100.82     Fog
07:00 Legend Double Dagger 2.8 2.8 100 4 3 24.1 100.85     Fog
08:00 Legend Double Dagger 8.2 8.1 99 1 4 24.1 100.85     Mainly Clear
09:00 Legend Double Dagger 13.7 8.6 71 36 11 24.1 100.85     LegendNANA
10:00 Legend Double Dagger 16.1 8.9 62 1 10 24.1 100.85     LegendNANA
11:00 Legend Double Dagger 18.0 10.5 61 1 8 24.1 100.79     Mainly Clear
12:00 Legend Double Dagger 19.7 10.5 55 32 2 24.1 100.77     LegendNANA
13:00 Legend Double Dagger LegendMM 11.0 51 36 12 24.1 100.71     LegendNANA
14:00 Legend Double Dagger 21.9 11.2 50 36 18 24.1 100.69     Mainly Clear
15:00 Legend Double Dagger 21.7 12.1 54 2 18 24.1 100.69     LegendNANA
16:00 Legend Double Dagger 21.0 12.0 56 4 17 24.1 100.70     LegendNANA
17:00 Legend Double Dagger 17.1 10.5 65 11 13 24.1 100.77     Mainly Clear
18:00 Legend Double Dagger 14.2 10.7 79 9 10 24.1 100.85     LegendNANA
19:00 Legend Double Dagger 12.8 10.5 86 3 13 24.1 100.92     LegendNANA
20:00 Legend Double Dagger 12.3 10.6 89 2 14 24.1 100.98     Clear
21:00 Legend Double Dagger 11.0 9.6 91 3 12 24.1 101.03     LegendNANA
22:00 Legend Double Dagger 10.0 8.9 93 1 13 24.1 101.09     LegendNANA
23:00 Legend Double Dagger 10.6 9.4 92 5 9 24.1 101.13     Cloudy

Notes on Data Quality.

Legend

  • E = Estimated
  • M = Missing
  • NA = Not Available
  • ‡ = Partner data that is not subject to review by the National Climate Archives
Date modified: